#timestamp,LO_Frequency,Hit,StdDev 
1701860415.6,286046998.8,N
1701860435.5,286046999.4,N
1701860455.3,286046999.3,N
1701860475.1,286047000.9,N
1701860495.9,286046998.2,N
1701860515.7,286046999.0,N
1701860535.6,286046998.1,N
1701860555.4,286046998.3,N
1701860575.2,286046998.1,N
1701860595.1,286047000.6,N
1701860596.0,286047000.6,N
1701860615.8,286047002.7,N
1701860635.6,286047000.9,N
1701860655.5,286047000.0,N
1701860675.3,286047000.5,N
1701860695.2,286047000.9,N
1701860715.9,286046999.5,N
1701860735.7,286046996.6,N
1701860755.6,286046998.9,N
1701860775.4,286046998.6,N
1701860795.2,286046998.4,N
1701860815.1,286046998.3,N
1701860816.0,286046998.3,N
1701860835.8,286046998.6,N
1701860855.7,286047001.0,N
1701860875.5,286047000.5,N
1701860895.3,286047000.9,N
1701860915.2,286047000.8,N
1701860935.0,286046999.9,N
1701860935.9,286046999.9,N
1701860955.7,286047000.1,N
1701860975.6,286046999.7,N
1701860995.4,286047002.6,N
1701861015.3,286047002.6,N
1701861035.1,286047002.4,N
1701861036.0,286047002.4,N
1701861055.8,286046999.7,N
1701861075.7,286047002.8,N
1701861095.5,286047000.1,N
1701861115.3,286047000.3,N
1701861135.2,286046998.1,N
1701861155.0,286046998.3,N
1701861155.9,286046998.3,N
1701861175.8,286046998.3,N
1701861195.6,286047001.1,N
1701861215.4,286047000.0,N
1701861235.3,286047000.6,N
1701861255.1,286046998.9,N
1701861275.9,286046999.4,N
1701861295.7,286046998.7,N
1701861315.5,286046998.5,N
1701861335.4,286046998.2,N
1701861355.2,286046998.1,N
1701861375.0,286047000.8,N
1701861375.9,286047000.8,N
1701861395.8,286046998.5,N
1701861415.6,286046998.5,N
1701861435.5,286046998.3,N
1701861455.3,286046996.5,N
1701861475.1,286046996.5,N
1701861495.9,286046998.7,N
1701861515.7,286046998.2,N
1701861535.6,286046998.5,N
1701861555.4,286046999.0,N
1701861575.2,286047001.0,N
1701861595.1,286047001.0,N
1701861596.0,286047001.0,N
1701861615.8,286047000.0,N
1701861635.6,286046999.9,N
1701861655.5,286047000.0,N
1701861675.3,286047000.4,N
1701861695.2,286047000.3,N
1701861715.9,286047000.2,N
1701861735.7,286047000.0,N
1701861755.6,286047000.0,N
1701861775.4,286046999.9,N
1701861795.2,286047002.4,N
1701861815.1,286047001.7,N
1701861816.0,286047001.7,N
1701861835.8,286047000.3,N
1701861855.7,286046998.6,N
1701861875.5,286046998.8,N
1701861895.3,286046999.5,N
1701861915.2,286046998.2,N
1701861935.0,286046999.6,N
1701861935.9,286046999.6,N
1701861955.7,286046998.4,N
1701861975.6,286046998.5,N
1701861995.4,286047001.2,N
1701862015.3,286047000.8,N
1701862035.1,286047000.9,N
1701862036.0,286047000.9,N
1701862055.8,286047000.3,N
1701862075.7,286047000.6,N
1701862095.5,286047001.2,N
1701862115.4,286047000.8,N
1701862135.2,286046998.8,N
1701862155.0,286046998.5,N
1701862155.9,286046998.5,N
1701862175.8,286046998.3,N
1701862195.6,286046998.6,N
1701862215.4,286047000.0,N
1701862235.3,286046998.6,N
1701862255.1,286047000.4,N
1701862275.9,286047000.5,N
1701862295.7,286047000.1,N
1701862315.5,286046999.8,N
1701862335.4,286046999.9,N
1701862355.2,286047002.4,N
1701862375.0,286047000.4,N
1701862375.9,286047000.4,N
1701862395.8,286047000.3,N
1701862415.6,286047001.8,N
1701862435.5,286047000.4,N
1701862455.3,286047000.8,N
1701862475.1,286047000.7,N
1701862495.9,286047000.0,N
1701862515.7,286047000.0,N
1701862535.5,286047002.8,N
1701862555.4,286047002.4,N
1701862575.2,286047000.0,N
1701862595.1,286047000.6,N
1701862596.0,286047000.6,N
1701862615.8,286047000.0,N
1701862635.6,286046999.9,N
1701862655.5,286047002.0,N
1701862675.3,286047001.7,N
1701862695.5,286047001.3,N
1701862715.3,286047002.2,N
1701862735.1,286047002.1,N
1701862755.9,286047002.0,N
1701862775.7,286047001.6,N
1701862795.6,286047000.1,N
1701862815.4,286047002.2,N
1701862835.2,286047002.6,N
1701862855.1,286047002.8,N
1701862856.0,286047002.8,N
1701862875.8,286047000.2,N
1701862895.7,286047002.4,N
1701862915.5,286047002.1,N
1701862935.3,286047004.0,Y
1701862955.2,286047001.5,P
1701862975.0,286047002.6,P
1701862975.9,286047002.6,P
1701862995.7,286047002.4,Y
1701863015.6,286047001.1,P
1701863035.4,286046996.7,P
1701863055.3,286046996.7,N
1701863075.1,286046998.1,N
1701863076.0,286046998.1,N
1701863095.8,286046999.5,N
1701863115.7,286046999.1,N
1701863135.5,286046995.1,N
1701863155.4,286046997.6,N
1701863175.2,286046995.3,N
1701863195.0,286046995.1,N
1701863195.9,286046995.1,N
1701863215.8,286046997.9,N
1701863235.6,286046997.4,N
1701863255.5,286046999.5,N
1701863275.3,286046997.1,N
1701863295.1,286046996.5,N
1701863315.9,286046999.2,N
1701863335.7,286046997.9,N
1701863355.5,286046995.0,N
1701863375.4,286046997.6,N
1701863395.2,286046997.4,N
1701863415.1,286046996.6,N
1701863416.0,286046996.6,N
1701863435.8,286046996.5,N
1701863455.6,286046999.1,N
1701863475.5,286046997.2,N
1701863495.3,286046995.2,N
1701863515.2,286046995.2,N
1701863535.9,286046995.4,N
1701863555.7,286046997.4,N
1701863575.6,286046999.3,N
1701863595.4,286046999.3,N
1701863615.2,286046996.9,N
1701863635.1,286046999.6,N
1701863636.0,286046999.6,N
1701863655.8,286046997.0,N
1701863675.7,286046996.5,N
1701863695.5,286046999.5,N
1701863715.3,286046998.4,N
1701863735.2,286046999.4,N
1701863755.0,286046999.5,N
1701863755.9,286046999.5,N
1701863775.8,286046999.2,N
1701863795.6,286046998.6,N
1701863815.4,286046998.5,N
1701863835.3,286046999.3,N
1701863855.1,286046999.3,N
1701863875.8,286046996.7,N
1701863895.7,286046997.4,N
1701863915.5,286046995.5,Y
1701863935.4,286046999.5,P
1701863955.2,286046999.1,N
1701863975.0,286046999.4,N
1701863975.9,286046999.4,N
1701863995.8,286046997.3,Y
